AAL2581 KMKE-KDFW

Flight info

Callsign AAL2581
Flight time 2h 9m
Altitude 36000
Route ACCRA5 ACCRA RBS STL KK45I FSM KOMMA RRNET SEEVR4
Aircraft B38M/M-SDE1FGHILORVWXY/HB1

Departure

Time 2026-05-05 18:43
Airport General Mitchell International Airport (KMKE)

Arrival

Time 2026-05-05 20:53
Airport Dallas Fort Worth International Airport (KDFW)
Time Latitude Longitude Altitude Speed Heading
2026-05-05 18:23 42.95125 -87.90068 690 ft 0 kts 195°
2026-05-05 18:24 42.95124 -87.90069 690 ft 0 kts 195°
2026-05-05 18:24 42.94675 -87.89933 684 ft 0 kts 63°
2026-05-05 18:35 42.94666 -87.89962 686 ft 4 kts 73°
2026-05-05 18:36 42.94661 -87.89998 684 ft 4 kts 92°
2026-05-05 18:36 42.94667 -87.90033 686 ft 4 kts 118°
2026-05-05 18:36 42.94675 -87.90050 682 ft 0 kts 132°
2026-05-05 18:38 42.94668 -87.90040 685 ft 3 kts 135°
2026-05-05 18:38 42.94646 -87.90018 685 ft 6 kts 150°
2026-05-05 18:38 42.94568 -87.89988 686 ft 17 kts 170°
2026-05-05 18:39 42.94446 -87.89960 686 ft 18 kts 170°
2026-05-05 18:39 42.94319 -87.89928 688 ft 19 kts 170°
2026-05-05 18:39 42.94183 -87.89896 685 ft 21 kts 170°
2026-05-05 18:39 42.94035 -87.89884 686 ft 22 kts 181°
2026-05-05 18:40 42.93878 -87.89888 687 ft 23 kts 180°
2026-05-05 18:40 42.93712 -87.89890 689 ft 24 kts 181°
2026-05-05 18:40 42.93543 -87.89894 689 ft 24 kts 182°
2026-05-05 18:40 42.93385 -87.89902 686 ft 17 kts 182°
2026-05-05 18:41 42.93265 -87.89918 689 ft 18 kts 187°
2026-05-05 18:41 42.93145 -87.89941 685 ft 13 kts 187°
2026-05-05 18:41 42.93077 -87.89918 689 ft 8 kts 117°
2026-05-05 18:41 42.93073 -87.89899 688 ft 0 kts 98°
2026-05-05 18:42 42.93073 -87.89890 689 ft 4 kts 96°
2026-05-05 18:42 42.93068 -87.89801 687 ft 11 kts 84°
2026-05-05 18:42 42.93111 -87.89753 688 ft 4 kts
2026-05-05 18:42 42.93149 -87.89748 686 ft 8 kts
2026-05-05 18:43 42.93356 -87.89714 686 ft 65 kts
2026-05-05 18:43 42.94060 -87.89591 686 ft 137 kts
2026-05-05 18:43 42.95188 -87.89368 820 ft 182 kts
2026-05-05 18:43 42.96463 -87.89048 1648 ft 187 kts
2026-05-05 18:44 42.97755 -87.88699 2543 ft 193 kts
2026-05-05 18:44 42.99098 -87.88978 3007 ft 208 kts 325°
2026-05-05 18:44 43.00078 -87.90516 3521 ft 228 kts 297°
2026-05-05 18:44 43.00693 -87.92500 4438 ft 232 kts 279°
2026-05-05 18:45 43.00488 -87.94741 5086 ft 250 kts 248°
2026-05-05 18:45 42.99450 -87.96655 6083 ft 256 kts 225°
2026-05-05 18:45 42.97889 -87.97900 7001 ft 264 kts 207°
2026-05-05 18:45 42.96182 -87.98871 7794 ft 269 kts 209°
2026-05-05 18:46 42.94465 -87.99882 7975 ft 268 kts 209°
2026-05-05 18:46 42.92758 -88.00888 7993 ft 266 kts 209°
2026-05-05 18:46 42.91056 -88.01895 8022 ft 268 kts 209°
2026-05-05 18:46 42.89346 -88.02913 8670 ft 267 kts 210°
2026-05-05 18:47 42.87641 -88.03922 9676 ft 268 kts 210°
2026-05-05 18:47 42.85916 -88.04944 10420 ft 275 kts 210°
2026-05-05 18:47 42.84104 -88.06028 10803 ft 295 kts 211°
2026-05-05 18:47 42.82165 -88.07191 11117 ft 315 kts 210°
2026-05-05 18:48 42.80110 -88.08417 11530 ft 329 kts 210°
2026-05-05 18:48 42.77973 -88.09681 12056 ft 340 kts 211°
2026-05-05 18:48 42.75795 -88.10960 12763 ft 343 kts 211°
2026-05-05 18:48 42.73568 -88.12261 13585 ft 345 kts 211°
2026-05-05 18:49 42.71386 -88.13529 14300 ft 346 kts 211°
2026-05-05 18:49 42.69048 -88.14503 14990 ft 363 kts 196°
2026-05-05 18:49 42.66460 -88.14610 15748 ft 371 kts 189°
2026-05-05 18:49 42.63860 -88.14628 16376 ft 375 kts 189°
2026-05-05 18:50 42.61242 -88.14628 17052 ft 378 kts 189°
2026-05-05 18:50 42.58603 -88.14620 17682 ft 381 kts 188°
2026-05-05 18:50 42.55938 -88.14609 18267 ft 385 kts 188°
2026-05-05 18:50 42.53276 -88.14517 18807 ft 389 kts 187°
2026-05-05 18:51 42.50564 -88.14410 19335 ft 392 kts 187°
2026-05-05 18:51 42.47829 -88.14307 19872 ft 394 kts 187°
2026-05-05 18:51 42.45036 -88.14203 20399 ft 398 kts 188°
2026-05-05 18:51 42.42300 -88.14099 20910 ft 401 kts 187°
2026-05-05 18:52 42.39485 -88.13561 21438 ft 414 kts 178°
2026-05-05 18:52 42.36657 -88.12794 21966 ft 415 kts 178°
2026-05-05 18:52 42.33823 -88.12038 22537 ft 416 kts 178°
2026-05-05 18:52 42.30977 -88.11281 23032 ft 418 kts 179°
2026-05-05 18:53 42.28106 -88.10560 23517 ft 421 kts 179°
2026-05-05 18:53 42.25223 -88.09835 23932 ft 423 kts 179°
2026-05-05 18:53 42.22320 -88.09104 24329 ft 426 kts 179°
2026-05-05 18:53 42.19398 -88.08367 24716 ft 428 kts 179°
2026-05-05 18:54 42.16463 -88.07628 25093 ft 431 kts 179°
2026-05-05 18:54 42.13512 -88.06888 25508 ft 432 kts 179°
2026-05-05 18:54 42.10541 -88.06142 25883 ft 435 kts 180°
2026-05-05 18:54 42.07559 -88.05393 26258 ft 437 kts 180°
2026-05-05 18:55 42.04561 -88.04661 26604 ft 439 kts 180°
2026-05-05 18:55 42.02523 -88.04168 26863 ft 441 kts 180°
2026-05-05 18:55 41.99497 -88.03435 27227 ft 443 kts 180°
2026-05-05 18:55 41.96499 -88.02709 27550 ft 445 kts 180°
2026-05-05 18:56 41.93405 -88.02118 27856 ft 437 kts 189°
2026-05-05 18:56 41.90411 -88.02360 28115 ft 432 kts 194°
2026-05-05 18:56 41.87397 -88.02639 28431 ft 435 kts 194°
2026-05-05 18:56 41.84413 -88.02937 28774 ft 436 kts 194°
2026-05-05 18:57 41.81383 -88.03256 29141 ft 437 kts 194°
2026-05-05 18:57 41.78354 -88.03582 29644 ft 436 kts 195°
2026-05-05 18:57 41.75335 -88.03910 30089 ft 434 kts 195°
2026-05-05 18:57 41.72319 -88.04238 30317 ft 438 kts 195°
2026-05-05 18:58 41.69266 -88.04569 30543 ft 441 kts 195°
2026-05-05 18:58 41.66209 -88.04901 30872 ft 441 kts 195°
2026-05-05 18:58 41.63148 -88.05233 31193 ft 442 kts 195°
2026-05-05 18:58 41.60079 -88.05566 31530 ft 442 kts 196°
2026-05-05 18:59 41.57010 -88.05898 31861 ft 443 kts 196°
2026-05-05 18:59 41.53932 -88.06231 32156 ft 444 kts 196°
2026-05-05 18:59 41.50853 -88.06564 32430 ft 445 kts 197°
2026-05-05 18:59 41.47761 -88.06897 32703 ft 446 kts 197°
2026-05-05 19:00 41.44665 -88.07231 33024 ft 447 kts 197°
2026-05-05 19:00 41.41562 -88.07565 33329 ft 447 kts 197°
2026-05-05 19:00 41.38460 -88.07899 33630 ft 448 kts 198°
2026-05-05 19:00 41.35351 -88.08233 33926 ft 448 kts 198°
2026-05-05 19:01 41.32240 -88.08566 34111 ft 449 kts 198°
2026-05-05 19:01 41.29117 -88.08902 34305 ft 452 kts 198°
2026-05-05 19:01 41.25977 -88.09238 34576 ft 453 kts 198°
2026-05-05 19:01 41.22848 -88.09572 34923 ft 451 kts 199°
2026-05-05 19:02 41.19723 -88.09906 35188 ft 451 kts 199°
2026-05-05 19:02 41.16591 -88.10241 35435 ft 451 kts 199°
2026-05-05 19:02 41.13461 -88.10575 35672 ft 451 kts 199°
2026-05-05 19:02 41.10330 -88.10910 35821 ft 452 kts 199°
2026-05-05 19:03 41.04032 -88.11580 35910 ft 454 kts 199°
2026-05-05 19:03 40.97746 -88.12248 35910 ft 453 kts 199°
2026-05-05 19:04 40.91458 -88.12915 35899 ft 453 kts 199°
2026-05-05 19:04 40.85166 -88.13582 35885 ft 454 kts 199°
2026-05-05 19:05 40.78859 -88.14249 35907 ft 455 kts 199°
2026-05-05 19:05 40.72549 -88.14914 35893 ft 454 kts 199°
2026-05-05 19:06 40.66241 -88.15579 35900 ft 455 kts 199°
2026-05-05 19:06 40.60166 -88.16881 35901 ft 419 kts 217°
2026-05-05 19:07 40.57672 -88.18626 35904 ft 395 kts 230°
2026-05-05 19:07 40.55579 -88.20878 35924 ft 387 kts 234°
2026-05-05 19:07 40.51693 -88.25703 35916 ft 382 kts 237°
2026-05-05 19:08 40.47996 -88.30691 35918 ft 380 kts 238°
2026-05-05 19:08 40.44350 -88.35723 35903 ft 381 kts 238°
2026-05-05 19:09 40.40701 -88.40788 35914 ft 382 kts 238°
2026-05-05 19:09 40.37054 -88.45848 35914 ft 382 kts 238°
2026-05-05 19:10 40.33409 -88.50897 35919 ft 379 kts 238°
2026-05-05 19:10 40.29789 -88.55904 35910 ft 378 kts 238°
2026-05-05 19:11 40.26165 -88.60908 35902 ft 378 kts 238°
2026-05-05 19:11 40.22536 -88.65912 35896 ft 380 kts 238°
2026-05-05 19:12 40.18885 -88.70934 35908 ft 382 kts 238°
2026-05-05 19:12 40.15226 -88.75960 35901 ft 381 kts 238°
2026-05-05 19:13 40.11565 -88.80982 35911 ft 382 kts 238°
2026-05-05 19:13 40.07926 -88.85964 35898 ft 382 kts 238°
2026-05-05 19:14 40.04274 -88.90956 35921 ft 379 kts 238°
2026-05-05 19:14 40.00633 -88.95925 35912 ft 381 kts 238°
2026-05-05 19:15 39.96953 -89.00939 35926 ft 383 kts 238°
2026-05-05 19:15 39.93272 -89.05945 35922 ft 382 kts 238°
2026-05-05 19:16 39.89588 -89.10948 35917 ft 383 kts 238°
2026-05-05 19:16 39.85901 -89.15946 35926 ft 383 kts 238°
2026-05-05 19:17 39.82218 -89.20930 35905 ft 382 kts 238°
2026-05-05 19:17 39.78526 -89.25919 35904 ft 383 kts 238°
2026-05-05 19:18 39.74836 -89.30896 35939 ft 382 kts 238°
2026-05-05 19:18 39.71144 -89.35869 35950 ft 382 kts 238°
2026-05-05 19:19 39.67466 -89.40814 35948 ft 381 kts 238°
2026-05-05 19:19 39.63776 -89.45767 35952 ft 382 kts 238°
2026-05-05 19:20 39.60083 -89.50717 35944 ft 382 kts 238°
2026-05-05 19:20 39.56385 -89.55663 35919 ft 382 kts 238°
2026-05-05 19:21 39.52691 -89.60598 35943 ft 381 kts 237°
2026-05-05 19:21 39.48994 -89.65528 35942 ft 381 kts 237°
2026-05-05 19:22 39.45296 -89.70452 35942 ft 381 kts 237°
2026-05-05 19:22 39.41596 -89.75371 35937 ft 381 kts 237°
2026-05-05 19:23 39.37895 -89.80283 35935 ft 382 kts 237°
2026-05-05 19:23 39.34213 -89.85161 35885 ft 382 kts 237°
2026-05-05 19:24 39.30503 -89.90069 35924 ft 382 kts 237°
2026-05-05 19:24 39.26786 -89.94979 35930 ft 385 kts 237°
2026-05-05 19:25 39.23019 -89.99945 35941 ft 388 kts 237°
2026-05-05 19:25 39.19252 -90.04904 35933 ft 386 kts 237°
2026-05-05 19:26 39.15489 -90.09848 35928 ft 386 kts 237°
2026-05-05 19:26 39.11724 -90.14790 35879 ft 386 kts 237°
2026-05-05 19:27 39.07954 -90.19727 35930 ft 387 kts 236°
2026-05-05 19:27 39.04187 -90.24655 35931 ft 386 kts 237°
2026-05-05 19:28 39.00416 -90.29579 35931 ft 386 kts 237°
2026-05-05 19:28 38.96646 -90.34498 35935 ft 386 kts 236°
2026-05-05 19:29 38.92874 -90.39408 35941 ft 386 kts 236°
2026-05-05 19:29 38.89111 -90.44300 35919 ft 384 kts 236°
2026-05-05 19:30 38.85231 -90.49123 35935 ft 391 kts 232°
2026-05-05 19:30 38.81155 -90.53727 35937 ft 390 kts 233°
2026-05-05 19:31 38.77130 -90.58316 35922 ft 390 kts 233°
2026-05-05 19:31 38.73079 -90.62937 35927 ft 390 kts 233°
2026-05-05 19:32 38.69027 -90.67553 35915 ft 390 kts 233°
2026-05-05 19:32 38.64973 -90.72164 35906 ft 390 kts 233°
2026-05-05 19:33 38.60916 -90.76772 35920 ft 392 kts 233°
2026-05-05 19:33 38.56842 -90.81390 35929 ft 391 kts 233°
2026-05-05 19:34 38.52774 -90.85995 35932 ft 391 kts 233°
2026-05-05 19:35 38.46670 -90.92892 35928 ft 391 kts 233°
2026-05-05 19:35 38.42603 -90.97483 35942 ft 390 kts 233°
2026-05-05 19:36 38.38527 -91.02067 35937 ft 391 kts 233°
2026-05-05 19:36 38.34454 -91.06644 35952 ft 391 kts 233°
2026-05-05 19:37 38.30375 -91.11223 35956 ft 391 kts 233°
2026-05-05 19:37 38.26296 -91.15791 35945 ft 390 kts 232°
2026-05-05 19:38 38.22883 -91.19611 35949 ft 389 kts 232°
2026-05-05 19:38 38.18815 -91.24157 35956 ft 389 kts 232°
2026-05-05 19:39 38.14742 -91.28701 35939 ft 390 kts 232°
2026-05-05 19:39 38.10663 -91.33245 35941 ft 390 kts 232°
2026-05-05 19:40 38.06578 -91.37787 35920 ft 390 kts 232°
2026-05-05 19:40 38.02502 -91.42314 35926 ft 390 kts 232°
2026-05-05 19:41 37.98416 -91.46844 35915 ft 390 kts 232°
2026-05-05 19:41 37.94329 -91.51369 35856 ft 390 kts 232°
2026-05-05 19:42 37.90263 -91.55863 35897 ft 390 kts 232°
2026-05-05 19:42 37.86177 -91.60373 35890 ft 389 kts 232°
2026-05-05 19:43 37.82098 -91.64868 35892 ft 389 kts 232°
2026-05-05 19:43 37.78009 -91.69366 35884 ft 390 kts 232°
2026-05-05 19:44 37.73921 -91.73857 35887 ft 390 kts 232°
2026-05-05 19:44 37.69829 -91.78345 35834 ft 389 kts 232°
2026-05-05 19:45 37.65731 -91.82835 35877 ft 392 kts 232°
2026-05-05 19:45 37.61617 -91.87335 35870 ft 391 kts 232°
2026-05-05 19:46 37.57499 -91.91832 35872 ft 391 kts 231°
2026-05-05 19:46 37.53400 -91.96303 35868 ft 389 kts 231°
2026-05-05 19:47 37.49328 -92.00777 35861 ft 388 kts 232°
2026-05-05 19:47 37.45302 -92.05275 35821 ft 388 kts 232°
2026-05-05 19:48 37.41259 -92.09781 35854 ft 389 kts 232°
2026-05-05 19:48 37.37210 -92.14285 35845 ft 388 kts 232°
2026-05-05 19:49 37.33166 -92.18778 35847 ft 388 kts 232°
2026-05-05 19:49 37.29152 -92.23231 35840 ft 388 kts 232°
2026-05-05 19:50 37.25103 -92.27715 35839 ft 388 kts 232°
2026-05-05 19:50 37.21032 -92.32218 35784 ft 386 kts 232°
2026-05-05 19:51 37.17039 -92.36627 35838 ft 384 kts 232°
2026-05-05 19:51 37.13029 -92.41049 35830 ft 384 kts 232°
2026-05-05 19:52 37.08993 -92.45493 35823 ft 384 kts 232°
2026-05-05 19:52 37.05007 -92.49875 35822 ft 384 kts 232°
2026-05-05 19:53 37.00995 -92.54280 35813 ft 384 kts 232°
2026-05-05 19:53 36.96976 -92.58686 35815 ft 384 kts 232°
2026-05-05 19:54 36.92954 -92.63089 35808 ft 385 kts 232°
2026-05-05 19:54 36.88935 -92.67481 35791 ft 385 kts 232°
2026-05-05 19:55 36.84915 -92.71868 35799 ft 383 kts 232°
2026-05-05 19:55 36.80904 -92.76240 35796 ft 383 kts 232°
2026-05-05 19:56 36.76893 -92.80605 35795 ft 383 kts 232°
2026-05-05 19:56 36.72884 -92.84962 35797 ft 383 kts 232°
2026-05-05 19:57 36.68868 -92.89321 35778 ft 383 kts 232°
2026-05-05 19:57 36.64838 -92.93687 35793 ft 384 kts 232°
2026-05-05 19:58 36.60804 -92.98053 35794 ft 384 kts 232°
2026-05-05 19:58 36.56772 -93.02409 35794 ft 384 kts 232°
2026-05-05 19:59 36.52742 -93.06757 35833 ft 384 kts 232°
2026-05-05 19:59 36.48706 -93.11105 35864 ft 384 kts 232°
2026-05-05 20:00 36.44669 -93.15450 35832 ft 384 kts 232°
2026-05-05 20:00 36.40616 -93.19805 35845 ft 386 kts 232°
2026-05-05 20:01 36.36554 -93.24162 35803 ft 385 kts 232°
2026-05-05 20:01 36.32504 -93.28501 35829 ft 386 kts 232°
2026-05-05 20:02 36.28442 -93.32846 35822 ft 386 kts 232°
2026-05-05 20:02 36.24375 -93.37190 35819 ft 386 kts 232°
2026-05-05 20:03 36.20310 -93.41526 35798 ft 385 kts 232°
2026-05-05 20:03 36.16236 -93.45866 35795 ft 388 kts 232°
2026-05-05 20:04 36.12147 -93.50215 35785 ft 388 kts 232°
2026-05-05 20:04 36.08055 -93.54561 35776 ft 388 kts 232°
2026-05-05 20:05 36.03961 -93.58903 35782 ft 388 kts 232°
2026-05-05 20:05 35.99860 -93.63246 35783 ft 388 kts 232°
2026-05-05 20:06 35.95761 -93.67582 35772 ft 388 kts 232°
2026-05-05 20:06 35.91660 -93.71912 35768 ft 388 kts 232°
2026-05-05 20:07 35.87566 -93.76230 35775 ft 388 kts 232°
2026-05-05 20:07 35.83453 -93.80561 35789 ft 388 kts 232°
2026-05-05 20:08 35.79397 -93.84825 35779 ft 383 kts 232°
2026-05-05 20:08 35.75363 -93.89062 35776 ft 382 kts 232°
2026-05-05 20:09 35.71313 -93.93310 35765 ft 383 kts 232°
2026-05-05 20:09 35.67267 -93.97550 35751 ft 383 kts 232°
2026-05-05 20:10 35.63193 -94.01810 35756 ft 385 kts 232°
2026-05-05 20:10 35.59115 -94.06067 35759 ft 385 kts 232°
2026-05-05 20:11 35.55033 -94.10325 35748 ft 385 kts 232°
2026-05-05 20:11 35.50954 -94.14575 35749 ft 385 kts 232°
2026-05-05 20:12 35.46876 -94.18818 35750 ft 385 kts 232°
2026-05-05 20:12 35.42795 -94.23059 35748 ft 384 kts 231°
2026-05-05 20:13 35.38734 -94.27313 35745 ft 383 kts 233°
2026-05-05 20:13 35.34757 -94.31665 35746 ft 383 kts 232°
2026-05-05 20:14 35.30800 -94.35978 35747 ft 383 kts 232°
2026-05-05 20:14 35.26817 -94.40311 35746 ft 383 kts 232°
2026-05-05 20:15 35.22832 -94.44642 35747 ft 383 kts 232°
2026-05-05 20:15 35.18843 -94.48970 35739 ft 383 kts 232°
2026-05-05 20:16 35.14851 -94.53295 35724 ft 384 kts 232°
2026-05-05 20:16 35.10849 -94.57626 35748 ft 385 kts 232°
2026-05-05 20:17 35.06847 -94.61950 35745 ft 383 kts 232°
2026-05-05 20:17 35.02854 -94.66260 35742 ft 383 kts 232°
2026-05-05 20:18 34.98840 -94.70545 35751 ft 384 kts 232°
2026-05-05 20:18 34.94822 -94.74824 35748 ft 383 kts 232°
2026-05-05 20:19 34.90804 -94.79097 35749 ft 384 kts 232°
2026-05-05 20:19 34.86780 -94.83370 35742 ft 384 kts 232°
2026-05-05 20:20 34.82743 -94.87645 35745 ft 385 kts 231°
2026-05-05 20:20 34.78635 -94.91844 35746 ft 386 kts 231°
2026-05-05 20:21 34.74529 -94.96043 35748 ft 385 kts 231°
2026-05-05 20:21 34.70434 -95.00227 35751 ft 384 kts 231°
2026-05-05 20:22 34.66344 -95.04402 35744 ft 384 kts 231°
2026-05-05 20:22 34.62251 -95.08574 35713 ft 384 kts 231°
2026-05-05 20:23 34.58152 -95.12746 35746 ft 385 kts 231°
2026-05-05 20:23 34.54078 -95.16886 35746 ft 385 kts 230°
2026-05-05 20:24 34.50639 -95.20377 35749 ft 385 kts 231°
2026-05-05 20:24 34.46536 -95.24533 35748 ft 384 kts 230°
2026-05-05 20:25 34.42431 -95.28673 35747 ft 385 kts 230°
2026-05-05 20:25 34.38319 -95.32817 35751 ft 384 kts 230°
2026-05-05 20:26 34.34208 -95.36952 35722 ft 383 kts 230°
2026-05-05 20:26 34.30108 -95.41073 35751 ft 383 kts 230°
2026-05-05 20:27 34.26010 -95.45184 35758 ft 383 kts 230°
2026-05-05 20:27 34.21907 -95.49297 35756 ft 383 kts 230°
2026-05-05 20:28 34.17802 -95.53400 35731 ft 381 kts 230°
2026-05-05 20:28 34.15776 -95.55422 35298 ft 376 kts 230°
2026-05-05 20:28 34.13766 -95.57428 34646 ft 375 kts 230°
2026-05-05 20:28 34.11756 -95.59433 33986 ft 374 kts 230°
2026-05-05 20:29 34.09754 -95.61429 33329 ft 373 kts 230°
2026-05-05 20:29 34.07760 -95.63412 32547 ft 371 kts 230°
2026-05-05 20:29 34.05764 -95.65397 31866 ft 372 kts 230°
2026-05-05 20:29 34.03774 -95.67374 31297 ft 372 kts 230°
2026-05-05 20:30 34.01774 -95.69363 30678 ft 381 kts 229°
2026-05-05 20:30 33.99695 -95.71423 30102 ft 382 kts 229°
2026-05-05 20:30 33.97636 -95.73464 29830 ft 385 kts 229°
2026-05-05 20:30 33.95575 -95.75520 29443 ft 384 kts 229°
2026-05-05 20:31 33.93527 -95.77571 28854 ft 381 kts 229°
2026-05-05 20:31 33.91496 -95.79602 28322 ft 378 kts 229°
2026-05-05 20:31 33.89482 -95.81615 27786 ft 375 kts 229°
2026-05-05 20:31 33.87510 -95.83585 27251 ft 372 kts 229°
2026-05-05 20:32 33.85529 -95.85563 26728 ft 369 kts 229°
2026-05-05 20:32 33.83558 -95.87526 26184 ft 366 kts 229°
2026-05-05 20:32 33.81588 -95.89473 25561 ft 366 kts 229°
2026-05-05 20:32 33.79631 -95.91407 25045 ft 362 kts 229°
2026-05-05 20:33 33.77690 -95.93323 24547 ft 359 kts 229°
2026-05-05 20:33 33.75768 -95.95221 24051 ft 357 kts 229°
2026-05-05 20:33 33.73852 -95.97109 23541 ft 355 kts 229°
2026-05-05 20:33 33.71946 -95.98988 22971 ft 354 kts 229°
2026-05-05 20:34 33.70046 -96.00858 22406 ft 352 kts 228°
2026-05-05 20:34 33.68168 -96.02706 21891 ft 349 kts 228°
2026-05-05 20:34 33.66306 -96.04539 21386 ft 346 kts 227°
2026-05-05 20:34 33.64449 -96.06365 20904 ft 343 kts 227°
2026-05-05 20:35 33.62609 -96.08174 20402 ft 341 kts 227°
2026-05-05 20:35 33.60779 -96.09971 19921 ft 339 kts 226°
2026-05-05 20:35 33.58958 -96.11760 19428 ft 338 kts 225°
2026-05-05 20:35 33.57143 -96.13541 18946 ft 337 kts 225°
2026-05-05 20:36 33.55334 -96.15316 18456 ft 336 kts 225°
2026-05-05 20:36 33.53528 -96.17085 17963 ft 335 kts 224°
2026-05-05 20:36 33.51728 -96.18850 17400 ft 330 kts 224°
2026-05-05 20:36 33.50000 -96.20542 17068 ft 313 kts 224°
2026-05-05 20:37 33.48352 -96.22155 16692 ft 301 kts 224°
2026-05-05 20:37 33.46731 -96.23741 16276 ft 300 kts 224°
2026-05-05 20:37 33.45120 -96.25317 15847 ft 298 kts 225°
2026-05-05 20:37 33.43713 -96.27099 15351 ft 293 kts 234°
2026-05-05 20:38 33.42411 -96.28956 14974 ft 290 kts 233°
2026-05-05 20:38 33.41095 -96.30785 14570 ft 291 kts 232°
2026-05-05 20:38 33.39767 -96.32613 14172 ft 291 kts 232°
2026-05-05 20:38 33.38434 -96.34433 13754 ft 290 kts 232°
2026-05-05 20:39 33.37104 -96.36241 13304 ft 288 kts 232°
2026-05-05 20:39 33.35783 -96.38033 12841 ft 286 kts 232°
2026-05-05 20:39 33.34471 -96.39810 12416 ft 283 kts 232°
2026-05-05 20:39 33.33182 -96.41571 12007 ft 279 kts 234°
2026-05-05 20:40 33.32339 -96.43583 11618 ft 266 kts 253°
2026-05-05 20:40 33.31765 -96.45629 11362 ft 254 kts 251°
2026-05-05 20:40 33.31193 -96.47600 11124 ft 248 kts 251°
2026-05-05 20:40 33.30636 -96.49544 10852 ft 248 kts 251°
2026-05-05 20:41 33.30082 -96.51498 10579 ft 249 kts 251°
2026-05-05 20:41 33.29528 -96.53457 10290 ft 249 kts 251°
2026-05-05 20:41 33.28974 -96.55422 10023 ft 250 kts 252°
2026-05-05 20:41 33.28667 -96.57463 9739 ft 252 kts 265°
2026-05-05 20:42 33.28574 -96.59558 9435 ft 253 kts 265°
2026-05-05 20:42 33.28477 -96.61655 9134 ft 253 kts 265°
2026-05-05 20:42 33.28380 -96.63751 8843 ft 252 kts 265°
2026-05-05 20:42 33.28285 -96.65815 8570 ft 251 kts 265°
2026-05-05 20:43 33.28189 -96.67892 8277 ft 249 kts 265°
2026-05-05 20:43 33.28094 -96.69944 7998 ft 246 kts 266°
2026-05-05 20:43 33.27998 -96.71978 7732 ft 245 kts 265°
2026-05-05 20:43 33.27904 -96.74009 7465 ft 246 kts 265°
2026-05-05 20:44 33.27807 -96.76058 7196 ft 247 kts 265°
2026-05-05 20:44 33.27711 -96.78109 6907 ft 247 kts 266°
2026-05-05 20:44 33.27615 -96.80157 6639 ft 246 kts 266°
2026-05-05 20:44 33.27518 -96.82195 6355 ft 245 kts 266°
2026-05-05 20:45 33.26851 -96.86086 6040 ft 244 kts 241°
2026-05-05 20:45 33.25853 -96.87745 6002 ft 248 kts 236°
2026-05-05 20:45 33.25042 -96.89543 5999 ft 245 kts 248°
2026-05-05 20:46 33.24334 -96.91398 5982 ft 246 kts 246°
2026-05-05 20:46 33.23604 -96.93247 5994 ft 246 kts 245°
2026-05-05 20:46 33.22866 -96.95088 5985 ft 246 kts 246°
2026-05-05 20:46 33.22120 -96.96927 5998 ft 246 kts 245°
2026-05-05 20:47 33.21371 -96.98758 5996 ft 242 kts 245°
2026-05-05 20:47 33.20612 -97.00526 5973 ft 238 kts 237°
2026-05-05 20:47 33.19407 -97.01883 5766 ft 243 kts 212°
2026-05-05 20:47 33.17780 -97.02461 5495 ft 250 kts 189°
2026-05-05 20:48 33.16026 -97.02491 5284 ft 254 kts 184°
2026-05-05 20:48 33.14257 -97.02480 5016 ft 254 kts 184°
2026-05-05 20:48 33.12473 -97.02486 4638 ft 258 kts 185°
2026-05-05 20:48 33.10681 -97.02494 4297 ft 255 kts 184°
2026-05-05 20:49 33.08927 -97.02501 3901 ft 250 kts 184°
2026-05-05 20:49 33.07207 -97.02511 3545 ft 245 kts 185°
2026-05-05 20:49 33.05525 -97.02520 3224 ft 238 kts 185°
2026-05-05 20:49 33.03889 -97.02528 2912 ft 232 kts 184°
2026-05-05 20:50 33.02286 -97.02538 2609 ft 228 kts 184°
2026-05-05 20:50 33.00736 -97.02546 2330 ft 215 kts 184°
2026-05-05 20:50 32.99309 -97.02552 2066 ft 194 kts 185°
2026-05-05 20:50 32.98048 -97.02556 1856 ft 169 kts 186°
2026-05-05 20:51 32.96930 -97.02564 1631 ft 154 kts 186°
2026-05-05 20:51 32.95851 -97.02573 1438 ft 151 kts 186°
2026-05-05 20:51 32.94823 -97.02589 1284 ft 145 kts 185°
2026-05-05 20:51 32.93827 -97.02608 1108 ft 145 kts 181°
2026-05-05 20:52 32.92825 -97.02592 902 ft 142 kts 184°
2026-05-05 20:52 32.91842 -97.02590 718 ft 140 kts 186°
2026-05-05 20:52 32.90908 -97.02607 624 ft 122 kts 180°
2026-05-05 20:52 32.90225 -97.02607 626 ft 76 kts 181°
2026-05-05 20:53 32.89843 -97.02606 623 ft 38 kts 174°
2026-05-05 20:53 32.89649 -97.02637 622 ft 19 kts 201°
2026-05-05 20:53 32.89534 -97.02707 628 ft 15 kts 210°
2026-05-05 20:53 32.89449 -97.02765 623 ft 11 kts 210°
2026-05-05 20:54 32.89406 -97.02802 618 ft 8 kts 227°
2026-05-05 20:54 32.89392 -97.02867 618 ft 9 kts 268°
2026-05-05 20:54 32.89394 -97.02952 618 ft 11 kts 270°
2026-05-05 20:54 32.89394 -97.03052 618 ft 13 kts 270°
2026-05-05 20:55 32.89394 -97.03167 618 ft 15 kts 270°
2026-05-05 20:55 32.89401 -97.03286 630 ft 14 kts 291°
2026-05-05 20:55 32.89470 -97.03355 622 ft 11 kts 339°
2026-05-05 20:55 32.89554 -97.03380 624 ft 14 kts 343°
2026-05-05 20:56 32.89616 -97.03434 620 ft 7 kts 298°
2026-05-05 20:56 32.89618 -97.03437 620 ft 0 kts 296°
2026-05-05 20:56 32.89620 -97.03445 620 ft 4 kts 290°
2026-05-05 20:57 32.89636 -97.03496 620 ft 6 kts 292°
2026-05-05 20:57 32.89642 -97.03512 630 ft 0 kts 292°